Location: *
(37.5724°S, 58.0067°E)
Time: 10:35:51
(UTC+00:00)

USA 229 DEB - Pass Details

Date: 02 December 2021
Orbit: 943 x 1269 km, 63.4° (Epoch: 14 January)

Event Time Altitude Azimuth Distance (km) Brightness Sun altitude
Rises 20:22:25 0° 251° (WSW) 4,145 6.9 -30.1°
Reaches altitude 10° 20:28:33 10° 215° (SW) 3,099 6.6 -29.9°
Maximum altitude 20:30:02 11° 203° (SSW) 3,030 6.7 -29.9°
Drops below altitude 10° 20:31:30 10° 191° (S) 3,053 6.9 -29.8°
Sets 20:37:19 0° 154° (SSE) 3,912 7.7 -29.6°
